Regional Weather Roundup
Issued by NWS Tiyan, Guam

Home | Current Version | Previous Version | Text Only | Print | Product List | Glossary On
Versions: 1 2 3 4 5 6 7 8 9 10 11 12 13 14 15 16 17 18 19 20 21 22 23 24 25 26 27
000
ASGM40 PGUM 192212
RWRGUM
WEATHER ROUNDUP FOR THE MARIANAS
NATIONAL WEATHER SERVICE TIYAN GU
800 AM GSST SUN APR 20 2014

GUZ001>004-192300-
MARIANA ISLANDS-

CITY           SKY/WX    TMP DP  RH WIND       PRES   REMARKS
GUAM AIRPORT   MOSUNNY   82  77  83 SE8       29.86R HX  91
ANDERSEN AFB   MOSUNNY   82  77  83 SE14      29.86R HX  91
ROTA AIRPORT   MOSUNNY   81  77  89 VRB6      29.87R
TINIAN AP      MOSUNNY   82  77  83 SE6       29.83S HX  91
SAIPAN AP      MOSUNNY   82  79  89 S3        29.87R HX  93

$$




USA.gov is the U.S. government's official web portal to all federal, state and local government web resources and services.